This is the latest recevied weather packets stored in our database for station/object ZL1CTS-13. If no packets are shown the sender has not sent any weather packets the latest 10 day(s).
| Time | Temp. | Humidity | Pressure | Rain* | Wind** | Luminosity | Snow |
|---|---|---|---|---|---|---|---|
| 1788570303 | 17.78° C | 73% | 1008.5 hPa | 0 mm | - | - | - |
| 1788570005 | 17.22° C | 74% | 1008.5 hPa | 0 mm | - | - | - |
| 1788570004 | 17.22° C | 74% | 1008.5 hPa | 0 mm | - | - | - |
| 1788569703 | 16.67° C | 74% | 1008.4 hPa | 0 mm | - | - | - |
| 1788569404 | 17.22° C | 73% | 1008.4 hPa | 0 mm | - | - | - |
| 1788569105 | 17.22° C | 75% | 1008.5 hPa | 0 mm | - | - | - |
| 1788569104 | 17.22° C | 75% | 1008.5 hPa | 0 mm | - | - | - |
| 1788568804 | 17.22° C | 74% | 1008.7 hPa | 0 mm | - | - | - |
| 1788568504 | 16.67° C | 75% | 1008.7 hPa | 0 mm | - | - | - |
| 1788568206 | 16.67° C | 74% | 1008.8 hPa | 0 mm | - | - | - |
| 1788568204 | 16.67° C | 74% | 1008.8 hPa | 0 mm | - | - | - |
| 1788567904 | 16.67° C | 75% | 1008.8 hPa | 0 mm | - | - | - |
| 1788567604 | 16.67° C | 75% | 1009 hPa | 0 mm | - | - | - |
| 1788567304 | 16.67° C | 75% | 1009 hPa | 0 mm | - | - | - |
| 1788567004 | 16.67° C | 75% | 1009 hPa | 0 mm | - | - | - |
| 1788566704 | 16.67° C | 75% | 1009.1 hPa | 0 mm | - | - | - |
| 1788566406 | 16.67° C | 74% | 1009 hPa | 0 mm | - | - | - |
| 1788566405 | 16.67° C | 76% | 1009 hPa | 0 mm | - | - | - |
| 1788566104 | 16.67° C | 79% | 1009 hPa | 0 mm | - | - | - |
| 1788565806 | 16.67° C | 80% | 1009 hPa | 0 mm | - | - | - |
| 1788565506 | 16.11° C | 78% | 1009 hPa | 0 mm | - | - | - |
| 1788565504 | 16.11° C | 78% | 1009 hPa | 0 mm | - | - | - |
| 1788565205 | 16.11° C | 76% | 1009 hPa | 0 mm | - | - | - |
| 1788564904 | 16.67° C | 75% | 1008.9 hPa | 0 mm | - | - | - |
| 1788564605 | 16.67° C | 75% | 1008.7 hPa | 0 mm | - | - | - |
* Rain latest hour (hover to see other rain measurements)
** Current wind speed in m/s (hover to see current wind gust speed)